GW4602 Weather Reports


time (UTC)temp
F
wind
direction
speed
knots
gust
knots
rain 1hr
in
rain 24hr
in
rain mn
in
humidity
%
barometer
mb
20260502195033 52 24 5.2 7.8 0.00 0.00 0.00 44 1017.0
20260502194530 52 317 3.5 5.2 0.00 0.00 0.00 49 1016.8
20260502194026 52 258 0.0 5.2 0.00 0.00 0.00 48 1017.0
20260502193523 53 291 3.5 7.0 0.00 0.00 0.00 47 1016.9
20260502193020 54 292 3.5 7.0 0.00 0.00 0.00 45 1016.9
20260502192516 54 355 1.7 3.5 0.00 0.00 0.00 45 1016.9
20260502192014 54 308 1.7 8.7 0.00 0.00 0.00 51 1016.9
20260502191510 55 20 2.6 8.7 0.00 0.00 0.00 47 1017.1
20260502191008 55 309 6.1 11.3 0.00 0.00 0.00 47 1017.1
20260502190505 54 56 4.3 7.0 0.00 0.00 0.00 50 1017.0
20260502190001 54 312 1.7 7.8 0.00 0.00 0.00 44 1017.0
20260502185452 56 155 2.6 7.0 0.00 0.00 0.00 44 1017.1
20260502184948 55 319 1.7 9.6 0.00 0.00 0.00 46 1017.2
20260502184444 54 315 1.7 6.1 0.00 0.00 0.00 45 1017.2
20260502183940 56 349 5.2 7.8 0.00 0.00 0.00 43 1017.3
20260502183437 54 180 2.6 6.1 0.00 0.00 0.00 46 1017.0
20260502182932 54 302 3.5 9.6 0.00 0.00 0.00 43 1016.9
20260502182428 55 3 2.6 8.7 0.00 0.00 0.00 43 1017.0
20260502181924 53 339 1.7 8.7 0.00 0.00 0.00 46 1017.4
20260502181423 53 0 3.5 9.6 0.00 0.00 0.00 44 1017.2
20260502180921 54 325 3.5 12.2 0.00 0.00 0.00 44 1017.3
20260502180418 54 13 3.5 7.8 0.00 0.00 0.00 42 1017.2
20260502170331 54 2 5.2 7.0 0.00 0.00 0.00 46 1017.6
20260502164318 54 244 1.7 3.5 0.00 0.00 0.00 49 1017.7
20260502163814 54 352 1.7 7.8 0.00 0.00 0.00 45 1017.6
20260502163311 54 318 4.3 9.6 0.00 0.00 0.00 42 1017.4
20260502162808 55 311 2.6 3.5 0.00 0.00 0.00 44 1017.6
20260502162305 54 223 0.0 2.6 0.00 0.00 0.00 51 1017.7
20260502161800 54 320 2.6 7.0 0.00 0.00 0.00 48 1017.7
20260502161252 53 31 7.0 8.7 0.00 0.00 0.00 44 1017.9
20260502160750 54 43 5.2 7.0 0.00 0.00 0.00 45 1017.9
20260502160249 53 28 1.7 2.6 0.00 0.00 0.00 47 1018.0
20260502152218 52 14 0.9 2.6 0.00 0.00 0.00 53 1017.9
20260502151716 53 23 3.5 6.1 0.00 0.00 0.00 47 1018.2
20260502151212 53 330 6.1 8.7 0.00 0.00 0.00 45 1018.2
20260502150710 53 317 2.6 6.1 0.00 0.00 0.00 51 1018.2
20260502150206 52 315 0.9 5.2 0.00 0.00 0.00 51 1018.2
20260502140130 51 298 0.0 1.7 0.00 0.00 0.00 57 1018.5
20260502130554 46 313 0.0 0.0 0.00 0.00 0.00 68 1018.5
20260502123537 45 1 0.0 0.0 0.00 0.00 0.00 77 1018.6
20260502123033 45 54 0.0 0.0 0.00 0.00 0.00 77 1018.5
20260502122531 45 269 0.0 0.0 0.00 0.00 0.00 79 1018.5
20260502122028 44 235 0.0 0.0 0.00 0.00 0.00 79 1018.7
20260502121525 44 124 0.0 0.0 0.00 0.00 0.00 83 1018.5
20260502121023 43 104 0.0 0.0 0.00 0.00 0.00 83 1018.6
20260502120519 43 109 0.0 0.0 0.00 0.00 0.00 83 1018.5
20260502115514 42 128 0.0 0.0 0.00 0.00 0.00 83 1018.5
20260502115009 42 120 0.0 0.0 0.00 0.00 0.00 83 1018.5
20260502114506 42 118 0.0 0.0 0.00 0.00 0.00 85 1018.5
20260502114003 42 122 0.0 0.0 0.00 0.00 0.00 85 1018.4
20260502113500 41 95 0.9 1.7 0.00 0.00 0.00 86 1018.3
20260502112959 40 124 0.0 0.0 0.00 0.00 0.00 89 1018.5
20260502112456 38 135 0.0 0.0 0.00 0.00 0.00 91 1018.5
20260502111954 38 135 0.0 0.0 0.00 0.00 0.00 91 1018.4
20260502111451 38 135 0.0 0.9 0.00 0.00 0.00 90 1018.2
20260502110948 38 135 0.0 0.0 0.00 0.00 0.00 91 1018.2
20260502110446 38 75 0.0 0.0 0.00 0.00 0.00 91 1018.3
20260502105943 37 59 0.0 0.0 0.00 0.00 0.00 91 1018.4
20260502105441 37 59 0.0 0.0 0.00 0.00 0.00 90 1018.2
20260502104938 37 59 0.0 0.0 0.00 0.00 0.00 90 1018.2
20260502104435 38 59 0.0 0.0 0.00 0.00 0.00 90 1018.3
20260502103932 38 59 0.0 0.0 0.00 0.00 0.00 89 1018.2
20260502103430 38 59 0.0 0.0 0.00 0.00 0.00 89 1018.3
20260502102927 38 59 0.0 0.0 0.00 0.00 0.00 89 1018.2
20260502102423 38 59 0.0 0.0 0.00 0.00 0.00 88 1018.3
20260502101920 38 59 0.0 0.0 0.00 0.00 0.00 88 1018.4
20260502101419 39 59 0.0 0.0 0.00 0.00 0.00 88 1018.5
20260502100916 39 59 0.0 0.0 0.00 0.00 0.00 88 1018.2
20260502100416 39 59 0.0 0.0 0.00 0.00 0.00 87 1018.3
20260502091349 43 36 0.0 0.0 0.00 0.00 0.00 75 1018.3
20260502090847 43 306 0.0 0.9 0.00 0.00 0.00 75 1018.5
20260502090343 44 339 0.0 0.0 0.00 0.00 0.00 74 1018.4
20260502071238 46 333 0.0 0.0 0.00 0.00 0.00 61 1018.0
20260502070737 47 322 0.0 2.6 0.00 0.00 0.00 60 1018.0
20260502070234 47 318 0.9 1.7 0.00 0.00 0.00 62 1017.9
20260502065732 47 316 0.0 0.9 0.00 0.00 0.00 65 1018.0
20260502065230 47 26 0.0 2.6 0.00 0.00 0.00 63 1018.0
20260502064728 47 290 0.9 3.5 0.00 0.00 0.00 64 1017.9
20260502064226 47 11 1.7 2.6 0.00 0.00 0.00 63 1018.1
20260502063723 47 348 1.7 3.5 0.00 0.00 0.00 64 1018.1
20260502063221 48 341 0.9 0.9 0.00 0.00 0.00 66 1018.1
20260502062717 48 323 0.9 0.9 0.00 0.00 0.00 63 1018.1
20260502062216 48 318 1.7 2.6 0.00 0.00 0.00 64 1018.2
20260502061714 48 356 0.9 3.5 0.00 0.00 0.00 64 1018.3
20260502061211 48 344 0.9 1.7 0.00 0.00 0.00 64 1018.4
20260502060706 48 331 0.9 1.7 0.00 0.00 0.00 65 1018.2
20260502060202 48 28 0.0 1.7 0.00 0.00 0.00 63 1018.4
20260502055700 48 82 0.0 0.0 0.00 0.00 0.00 64 1018.2
20260502055158 48 6 0.0 0.0 0.00 0.00 0.00 62 1018.2
20260502054657 48 298 0.0 0.9 0.00 0.00 0.00 64 1018.4
20260502054154 48 358 0.0 0.9 0.00 0.00 0.00 65 1018.5
20260502053651 48 270 0.0 0.9 0.00 0.00 0.00 68 1018.3
20260502053148 48 275 0.0 0.0 0.00 0.00 0.00 68 1018.2
20260502052646 49 311 0.0 0.0 0.00 0.00 0.00 69 1018.3
20260502052144 49 293 0.0 0.0 0.00 0.00 0.00 68 1018.3
20260502051642 49 68 0.0 3.5 0.00 0.00 0.00 67 1018.2
20260502051140 49 49 0.9 2.6 0.00 0.00 0.00 68 1018.3
20260502050636 49 1 0.9 5.2 0.00 0.00 0.00 68 1018.3
20260502050133 49 327 2.6 6.1 0.00 0.00 0.00 69 1018.4
20260502045629 49 329 3.5 3.5 0.00 0.00 0.00 70 1018.4
20260502045127 49 325 2.6 5.2 0.00 0.00 0.00 70 1018.4
20260502044623 49 43 1.7 7.0 0.00 0.00 0.00 70 1018.2
20260502044120 49 324 4.3 6.1 0.00 0.00 0.00 70 1018.5
20260502043618 49 296 4.3 6.1 0.00 0.00 0.00 70 1018.3
20260502043114 49 335 0.0 0.0 0.00 0.00 0.00 72 1018.2
20260502042608 49 299 0.9 0.9 0.00 0.00 0.00 71 1018.2
20260502042106 50 60 0.0 0.0 0.00 0.00 0.00 71 1018.2
20260502041603 50 347 0.9 5.2 0.00 0.00 0.00 69 1018.3
20260502041100 50 314 0.9 2.6 0.00 0.00 0.00 68 1018.1
20260502040557 50 311 0.0 2.6 0.00 0.00 0.00 67 1018.1
20260502040054 50 346 2.6 3.5 0.00 0.00 0.00 68 1018.2
20260502035550 50 300 0.0 1.7 0.00 0.00 0.00 69 1018.3
20260502035048 50 345 0.9 3.5 0.00 0.00 0.00 67 1018.3
20260502034546 50 25 0.0 0.9 0.00 0.00 0.00 69 1018.2
20260502034044 50 10 0.9 1.7 0.00 0.00 0.00 68 1018.3
20260502033542 50 300 0.0 0.0 0.00 0.00 0.00 69 1018.3
20260502033039 50 338 0.0 0.0 0.00 0.00 0.00 70 1018.3
20260502032534 50 320 0.0 0.0 0.00 0.00 0.00 70 1018.3
20260502032031 50 318 0.0 0.0 0.00 0.00 0.00 68 1018.6
20260502031529 51 39 0.0 0.0 0.00 0.00 0.00 68 1018.4
20260502031027 51 307 0.9 1.7 0.00 0.00 0.00 65 1018.5
20260502030526 51 303 0.0 1.7 0.00 0.00 0.00 68 1018.2
20260502030023 51 359 0.9 1.7 0.00 0.00 0.00 67 1018.1
20260502025520 51 326 1.7 1.7 0.00 0.00 0.00 67 1018.1
20260502025018 51 323 0.9 1.7 0.00 0.00 0.00 66 1018.1
20260502024515 51 304 0.0 1.7 0.00 0.00 0.00 67 1018.0
20260502024014 51 317 1.7 3.5 0.00 0.00 0.00 66 1018.0
20260502023511 51 20 3.5 7.0 0.00 0.00 0.00 65 1018.0
20260502023008 51 307 4.3 7.0 0.00 0.00 0.00 65 1017.9
20260502022504 51 325 0.9 2.6 0.00 0.00 0.00 67 1017.5
20260502022002 51 285 2.6 2.6 0.00 0.00 0.00 66 1017.4
20260502021459 51 75 1.7 2.6 0.00 0.00 0.00 69 1017.4
20260502020956 52 278 0.0 2.6 0.00 0.00 0.00 67 1017.5
20260502020454 52 325 2.6 3.5 0.00 0.00 0.00 66 1017.5
20260502015950 52 38 2.6 3.5 0.00 0.00 0.00 66 1016.9
20260502015448 52 355 2.6 6.1 0.00 0.00 0.00 68 1016.9
20260502014944 52 308 3.5 6.1 0.00 0.00 0.00 69 1016.8
20260502014441 52 290 0.9 3.5 0.00 0.00 0.00 69 1016.9
20260502013938 52 318 0.9 0.9 0.00 0.00 0.00 70 1016.7
20260502013433 52 259 0.0 1.7 0.00 0.00 0.00 70 1016.7
20260502012930 53 351 0.9 2.6 0.00 0.00 0.00 69 1016.6
20260502012428 53 336 0.9 1.7 0.00 0.00 0.00 70 1016.7
20260502011925 53 327 1.7 1.7 0.00 0.00 0.00 69 1016.4
20260502011421 53 68 4.3 7.0 0.00 0.00 0.00 69 1016.2
20260502010918 53 324 1.7 2.6 0.00 0.00 0.00 69 1016.3
20260502010415 53 356 3.5 7.8 0.00 0.00 0.00 68 1016.2
20260502005911 53 244 1.7 2.6 0.00 0.00 0.00 68 1016.2
20260502005410 53 343 3.5 5.2 0.00 0.00 0.00 68 1015.9
20260502004907 54 277 1.7 2.6 0.00 0.00 0.00 68 1015.8
20260502004403 54 106 0.0 2.6 0.00 0.00 0.00 67 1015.7
20260502003900 54 270 5.2 6.1 0.00 0.00 0.00 66 1015.7
20260502003357 55 308 0.9 1.7 0.00 0.00 0.00 65 1015.7
20260502002854 55 320 2.6 3.5 0.00 0.00 0.00 63 1015.4
20260502002351 55 289 4.3 7.8 0.00 0.00 0.00 62 1015.2
20260502001848 55 340 1.7 3.5 0.00 0.00 0.00 62 1015.2
20260502001346 56 10 1.7 3.5 0.00 0.00 0.00 61 1014.8
20260502000843 56 317 2.6 5.2 0.00 0.00 0.00 60 1014.7
20260502000341 56 33 1.7 6.1 0.00 0.00 0.00 59 1014.7
20260501235837 57 22 4.3 12.2 0.00 0.00 0.00 57 1014.5
20260501235333 58 337 7.0 12.2 0.00 0.00 0.00 55 1014.0
20260501234828 59 319 3.5 7.0 0.00 0.00 0.00 53 1013.8
20260501234326 59 342 5.2 13.0 0.00 0.00 0.00 50 1013.7
20260501233824 60 322 3.5 7.8 0.00 0.00 0.00 49 1013.3
20260501233321 61 352 7.0 11.3 0.00 0.00 0.00 46 1013.3
20260501232817 63 319 10.4 14.8 0.00 0.00 0.00 40 1013.1
20260501232314 63 313 0.9 3.5 0.00 0.00 0.00 40 1012.9
20260501231812 64 279 0.9 2.6 0.00 0.00 0.00 39 1012.9
20260501231309 64 290 2.6 6.1 0.00 0.00 0.00 37 1012.9
20260501230808 64 289 2.6 5.2 0.00 0.00 0.00 35 1013.0
20260501230306 64 334 2.6 5.2 0.00 0.00 0.00 37 1013.0
20260501225803 64 304 2.6 7.0 0.00 0.00 0.00 34 1012.9
20260501225301 65 326 5.2 7.0 0.00 0.00 0.00 35 1013.0
20260501224756 65 304 1.7 5.2 0.00 0.00 0.00 34 1012.9
20260501224254 65 297 3.5 6.1 0.00 0.00 0.00 34 1013.0
20260501223750 65 314 5.2 7.8 0.00 0.00 0.00 36 1012.8
20260501223247 65 273 1.7 2.6 0.00 0.00 0.00 37 1013.0
20260501222742 65 300 1.7 3.5 0.00 0.00 0.00 33 1012.8
20260501222240 65 302 3.5 5.2 0.00 0.00 0.00 32 1013.0
20260501221737 66 262 1.7 5.2 0.00 0.00 0.00 32 1012.8
20260501221234 66 246 2.6 5.2 0.00 0.00 0.00 35 1012.8
20260501220731 66 234 4.3 11.3 0.00 0.00 0.00 33 1012.9
20260501220229 65 334 4.3 9.6 0.00 0.00 0.00 32 1012.8
20260501215726 66 342 1.7 2.6 0.00 0.00 0.00 35 1013.1
20260501215221 67 276 3.5 7.0 0.00 0.00 0.00 32 1013.0
20260501214716 67 343 4.3 8.7 0.00 0.00 0.00 32 1012.9
20260501214213 65 285 1.7 5.2 0.00 0.00 0.00 33 1012.9
20260501213709 66 286 1.7 7.8 0.00 0.00 0.00 32 1012.9
20260501213205 68 346 4.3 7.0 0.00 0.00 0.00 30 1012.8
20260501212701 67 250 2.6 5.2 0.00 0.00 0.00 33 1012.8
20260501212158 67 310 1.7 3.5 0.00 0.00 0.00 34 1012.9
20260501211655 69 222 3.5 5.2 0.00 0.00 0.00 34 1012.8
20260501211153 69 304 2.6 7.0 0.00 0.00 0.00 29 1012.8
20260501210649 68 281 2.6 7.8 0.00 0.00 0.00 29 1012.8
20260501210146 68 293 2.6 12.2 0.00 0.00 0.00 30 1012.7
20260501205642 68 331 7.0 12.2 0.00 0.00 0.00 29 1012.7
20260501205140 69 327 8.7 11.3 0.00 0.00 0.00 29 1012.8
20260501204636 70 291 4.3 6.1 0.00 0.00 0.00 26 1012.6
20260501204132 69 207 2.6 7.8 0.00 0.00 0.00 31 1012.7
20260501203629 71 285 3.5 5.2 0.00 0.00 0.00 28 1012.6
20260501203127 71 309 5.2 7.0 0.00 0.00 0.00 26 1012.5
20260501202623 71 306 5.2 8.7 0.00 0.00 0.00 30 1012.6
20260501202120 71 294 4.3 7.8 0.00 0.00 0.00 31 1012.6
20260501201617 69 268 3.5 7.0 0.00 0.00 0.00 28 1012.7
20260501201114 68 308 1.7 7.8 0.00 0.00 0.00 28 1012.7
20260501200611 70 9 5.2 13.9 0.00 0.00 0.00 27 1012.8
20260501200108 70 298 5.2 7.8 0.00 0.00 0.00 29 1012.9
20260501195606 68 269 1.7 3.5 0.00 0.00 0.00 30 1012.8